WA9AFM-10 Weather Reports


time (UTC)temp
C
wind
direction
speed
KPH
gust
KPH
rain 1hr
cm
rain 24hr
cm
rain mn
cm
humidity
%
barometer
mb
20260505202114 12 135 1.6 16.1 0.00 0.00 0.00 81 1002.9
20260505195114 12 209 11.3 16.1 0.00 0.00 0.00 80 1002.1
20260505185113 13 90 1.6 16.1 0.00 0.00 0.00 81 1001.6
20260505182113 13 221 8.0 16.1 0.00 0.00 0.00 81 1001.3
20260505175114 14 114 0.0 16.1 0.00 0.00 0.00 82 1000.8
20260505172114 14 201 9.7 16.1 0.00 0.00 0.00 83 1000.5
20260505165116 15 208 0.0 16.1 0.00 0.00 0.00 82 999.6
20260505152115 22 210 0.0 16.1 0.00 0.00 0.00 77 996.8
20260505075215 21 318 4.8 16.1 0.00 0.00 0.00 79 994.3
20260505075113 21 318 4.8 16.1 0.00 0.00 0.00 79 994.3
20260505072200 21 347 1.6 16.1 0.00 0.00 0.00 79 994.7
20260505072115 21 347 1.6 16.1 0.00 0.00 0.00 79 994.7
20260505065112 21 45 0.0 16.1 0.00 0.00 0.00 78 995.1
20260505062112 21 303 1.6 16.1 0.00 0.00 0.00 78 995.4
20260505055113 21 1 4.8 16.1 0.00 0.00 0.00 78 995.7
20260505052113 21 16 0.0 16.1 0.00 0.00 0.00 77 995.8
20260505035113 22 331 3.2 16.1 0.00 0.00 0.00 73 996.3
20260505025113 23 343 4.8 16.1 0.00 0.00 0.00 70 996.2
20260505015112 23 350 0.0 16.1 0.00 0.00 0.00 67 996.0
20260505005113 25 16 3.2 16.1 0.00 0.00 0.00 64 996.1
20260505002115 25 312 1.6 16.1 0.00 0.00 0.00 62 996.2
20260504235112 26 26 3.2 16.1 0.00 0.00 0.00 59 996.5
20260504232113 26 90 1.6 16.1 0.00 0.00 0.00 59 996.8
20260504225113 26 21 6.4 16.1 0.00 0.00 0.00 58 997.2
20260504222114 27 351 14.5 16.1 0.00 0.00 0.00 57 997.3